TimeEDT,TemperatureF,Dew PointF,Humidity,Sea Level PressureIn,VisibilityMPH,Wind Direction,Wind SpeedMPH,Gust SpeedMPH,PrecipitationIn,Events,Conditions,WindDirDegrees,DateUTC
12:53 AM,61.0,52.0,72,29.79,10.0,NNW,12.7,-,N/A,,Clear,340,2013-06-13 04:53:00
1:53 AM,59.0,52.0,78,29.78,10.0,NW,5.8,-,N/A,,Clear,310,2013-06-13 05:53:00
2:53 AM,59.0,51.1,75,29.78,10.0,NNW,10.4,-,N/A,,Clear,330,2013-06-13 06:53:00
3:53 AM,55.0,52.0,89,29.78,10.0,West,5.8,-,N/A,,Clear,270,2013-06-13 07:53:00
4:53 AM,55.9,54.0,93,29.80,10.0,West,5.8,-,N/A,,Clear,280,2013-06-13 08:53:00
5:53 AM,57.0,55.0,93,29.81,10.0,West,5.8,-,N/A,,Clear,280,2013-06-13 09:53:00
6:53 AM,63.0,55.9,78,29.82,10.0,WNW,5.8,-,N/A,,Clear,300,2013-06-13 10:53:00
7:53 AM,64.9,51.1,61,29.82,10.0,NNW,3.5,-,N/A,,Clear,340,2013-06-13 11:53:00
8:53 AM,66.0,50.0,56,29.81,10.0,Calm,Calm,-,N/A,,Partly Cloudy,0,2013-06-13 12:53:00
9:53 AM,62.1,55.0,78,29.81,10.0,SSE,5.8,-,N/A,,Overcast,150,2013-06-13 13:53:00
10:53 AM,64.0,54.0,70,29.81,10.0,SSE,6.9,-,N/A,,Mostly Cloudy,150,2013-06-13 14:53:00
11:53 AM,63.0,52.0,67,29.82,10.0,SE,11.5,-,N/A,,Mostly Cloudy,130,2013-06-13 15:53:00
12:53 PM,64.0,48.9,58,29.78,10.0,East,13.8,-,0.00,,Scattered Clouds,100,2013-06-13 16:53:00
1:53 PM,60.1,50.0,69,29.79,10.0,ESE,9.2,-,0.00,Rain,Light Rain,110,2013-06-13 17:53:00
2:53 PM,59.0,52.0,78,29.77,10.0,SE,13.8,-,0.00,Rain,Light Rain,130,2013-06-13 18:53:00
3:53 PM,59.0,53.1,81,29.73,10.0,ESE,16.1,24.2,0.01,Rain,Light Rain,120,2013-06-13 19:53:00
4:53 PM,61.0,52.0,72,29.72,10.0,ESE,15.0,-,0.00,,Clear,120,2013-06-13 20:53:00
5:53 PM,60.1,51.1,72,29.69,10.0,East,13.8,19.6,N/A,,Overcast,90,2013-06-13 21:53:00
6:53 PM,57.9,50.0,75,29.68,10.0,East,13.8,-,N/A,,Overcast,90,2013-06-13 22:53:00
7:53 PM,57.0,50.0,77,29.68,10.0,East,13.8,-,N/A,,Overcast,90,2013-06-13 23:53:00
8:53 PM,55.0,52.0,89,29.66,10.0,East,15.0,-,0.01,,Overcast,90,2013-06-14 00:53:00
9:53 PM,55.0,52.0,89,29.65,10.0,East,17.3,-,0.00,,Overcast,80,2013-06-14 01:53:00
10:12 PM,55.4,51.8,88,29.63,9.0,East,16.1,23.0,0.00,Rain,Light Rain,80,2013-06-14 02:12:00
10:53 PM,54.0,52.0,93,29.60,7.0,ENE,17.3,24.2,0.01,Rain,Light Rain,60,2013-06-14 02:53:00
11:09 PM,53.6,51.8,94,29.59,5.0,NE,17.3,25.3,N/A,Rain,Rain,50,2013-06-14 03:09:00
11:35 PM,53.6,51.8,94,29.58,2.0,ENE,20.7,27.6,N/A,Rain,Heavy Rain,70,2013-06-14 03:35:00
11:46 PM,53.6,51.8,94,29.57,4.0,ENE,19.6,29.9,N/A,Rain,Rain,60,2013-06-14 03:46:00
11:53 PM,54.0,52.0,93,29.56,6.0,NE,19.6,29.9,N/A,Rain,Light Rain,50,2013-06-14 03:53:00